User: anonymous   Login
Location: Vale
(35.4830°N, 81.3830°W)
Time: 14:24:02
(UTC-04:00)
Language:

Oscar 11 - Orbit

View from above orbital plane
View from above orbital plane
View from above satellite
View from above satellite

Ground track
Ground track

The orbit data is extracted from the following two-line orbital elements,

1 14781U 84021B   15214.13457501  .00000464  00000-0  64265-4 0  9996
2 14781 097.7980 270.0773 0007129 283.2418 076.8000 14.82465477688838
Epoch (UTC): 02 August 2015 03:13:47
Eccentricity: 0.0007129
inclination: 97.7980°
perigee height: 616 km
apogee height: 626 km
right ascension of ascending node: 270.0773°
argument of perigee: 283.2418°
revolutions per day: 14.82465477
mean anomaly at epoch: 76.8000°
orbit number at epoch: 68883

The dashed part of the orbit path shows where the satellite is in the earth's shadow,  

DLR